SAS2112 ESMS-ESSA

Flight info

Callsign SAS2112
Flight time 0h 54m
Altitude 35000
Route NEXIL N851 ROXEN DCT MIKNA N851 PELUP Z226 NILUG
Aircraft A320/M-SDE3FGHIRWY/LB1

Departure

Time 2026-05-05 16:04
Airport Malmö Sturup Airport (ESMS)

Arrival

Time 2026-05-05 16:58
Airport Stockholm-Arlanda Airport (ESSA)
Time Latitude Longitude Altitude Speed Heading
2026-05-05 15:40 55.54093 13.36766 231 ft 0 kts 173°
2026-05-05 15:57 55.54117 13.36761 233 ft 4 kts 173°
2026-05-05 15:57 55.54138 13.36756 233 ft 4 kts 163°
2026-05-05 15:57 55.54157 13.36732 232 ft 4 kts 101°
2026-05-05 15:57 55.54157 13.36696 231 ft 0 kts 83°
2026-05-05 15:59 55.54163 13.36781 232 ft 18 kts 83°
2026-05-05 15:59 55.54181 13.37030 233 ft 22 kts 82°
2026-05-05 16:00 55.54195 13.37206 231 ft 6 kts 149°
2026-05-05 16:00 55.54120 13.37224 234 ft 19 kts 173°
2026-05-05 16:00 55.53974 13.37256 233 ft 23 kts 173°
2026-05-05 16:00 55.53763 13.37300 231 ft 34 kts 174°
2026-05-05 16:01 55.53520 13.37347 231 ft 36 kts 173°
2026-05-05 16:01 55.53260 13.37399 232 ft 38 kts 173°
2026-05-05 16:01 55.52990 13.37463 232 ft 40 kts 174°
2026-05-05 16:01 55.52709 13.37517 231 ft 41 kts 174°
2026-05-05 16:02 55.52440 13.37586 232 ft 31 kts 149°
2026-05-05 16:02 55.52332 13.37747 235 ft 14 kts 137°
2026-05-05 16:02 55.52331 13.37871 238 ft 6 kts 46°
2026-05-05 16:02 55.52383 13.37879 238 ft 9 kts 349°
2026-05-05 16:03 55.52470 13.37857 239 ft 29 kts 352°
2026-05-05 16:03 55.52923 13.37766 239 ft 98 kts 354°
2026-05-05 16:03 55.53767 13.37577 253 ft 146 kts 350°
2026-05-05 16:03 55.54791 13.37380 768 ft 153 kts 354°
2026-05-05 16:04 55.55921 13.37209 1269 ft 169 kts 355°
2026-05-05 16:04 55.57168 13.36976 1695 ft 192 kts 353°
2026-05-05 16:04 55.58574 13.36684 2140 ft 215 kts 353°
2026-05-05 16:04 55.60143 13.36352 2679 ft 237 kts 353°
2026-05-05 16:05 55.61821 13.36185 3520 ft 247 kts
2026-05-05 16:05 55.63389 13.37466 4457 ft 255 kts 35°
2026-05-05 16:05 55.64675 13.39686 5438 ft 262 kts 46°
2026-05-05 16:05 55.65877 13.42183 6337 ft 270 kts 48°
2026-05-05 16:06 55.67102 13.44779 7128 ft 279 kts 47°
2026-05-05 16:06 55.68418 13.47357 7938 ft 285 kts 40°
2026-05-05 16:06 55.70045 13.49384 8766 ft 288 kts 22°
2026-05-05 16:06 55.71941 13.50499 9590 ft 289 kts
2026-05-05 16:07 55.73942 13.51205 10243 ft 301 kts
2026-05-05 16:07 55.76083 13.51948 10519 ft 325 kts
2026-05-05 16:07 55.78346 13.52744 11036 ft 337 kts
2026-05-05 16:07 55.80663 13.53574 11726 ft 343 kts
2026-05-05 16:08 55.83019 13.54433 12450 ft 348 kts
2026-05-05 16:08 55.85409 13.55310 13180 ft 353 kts
2026-05-05 16:08 55.87832 13.56201 13891 ft 357 kts
2026-05-05 16:08 55.90282 13.57105 14550 ft 361 kts
2026-05-05 16:09 55.92760 13.58018 15184 ft 366 kts
2026-05-05 16:09 55.95269 13.58942 15839 ft 370 kts
2026-05-05 16:09 55.97710 13.59838 16450 ft 374 kts
2026-05-05 16:09 56.00237 13.60770 17081 ft 378 kts
2026-05-05 16:10 56.02833 13.61726 17728 ft 382 kts
2026-05-05 16:10 56.05455 13.62688 18348 ft 387 kts
2026-05-05 16:10 56.08106 13.63665 18926 ft 390 kts
2026-05-05 16:10 56.10781 13.64659 19532 ft 394 kts
2026-05-05 16:11 56.13470 13.65663 20150 ft 397 kts
2026-05-05 16:11 56.21681 13.68716 21904 ft 406 kts
2026-05-05 16:12 56.24462 13.69752 22492 ft 410 kts
2026-05-05 16:12 56.30089 13.71862 23619 ft 417 kts
2026-05-05 16:13 56.38131 13.78857 24991 ft 443 kts 32°
2026-05-05 16:13 56.40618 13.82178 25441 ft 446 kts 32°
2026-05-05 16:13 56.43126 13.85521 25884 ft 448 kts 32°
2026-05-05 16:14 56.48148 13.92214 26749 ft 454 kts 32°
2026-05-05 16:14 56.53291 13.99075 27584 ft 459 kts 32°
2026-05-05 16:15 56.58422 14.05962 28404 ft 464 kts 32°
2026-05-05 16:15 56.63632 14.12975 29200 ft 469 kts 32°
2026-05-05 16:16 56.68896 14.20085 29980 ft 474 kts 32°
2026-05-05 16:16 56.74207 14.27302 30635 ft 478 kts 32°
2026-05-05 16:17 56.79566 14.34607 31281 ft 483 kts 32°
2026-05-05 16:17 56.82233 14.38381 31605 ft 486 kts 35°
2026-05-05 16:18 56.87327 14.46497 32500 ft 486 kts 39°
2026-05-05 16:18 56.89801 14.50706 32937 ft 485 kts 39°
2026-05-05 16:18 56.94743 14.59108 33839 ft 484 kts 38°
2026-05-05 16:19 56.97237 14.63255 34222 ft 483 kts 38°
2026-05-05 16:19 56.99737 14.67357 34583 ft 482 kts 38°
2026-05-05 16:19 57.04754 14.75546 34893 ft 479 kts 38°
2026-05-05 16:20 57.14622 14.91818 34894 ft 476 kts 38°
2026-05-05 16:22 57.26891 15.12322 34894 ft 476 kts 38°
2026-05-05 16:23 57.36698 15.28831 34905 ft 477 kts 38°
2026-05-05 16:23 57.44029 15.41270 34908 ft 478 kts 38°
2026-05-05 16:24 57.48139 15.48271 34908 ft 478 kts 38°
2026-05-05 16:25 57.55491 15.60840 34909 ft 479 kts 38°
2026-05-05 16:25 57.62802 15.73409 34911 ft 479 kts 38°
2026-05-05 16:26 57.72578 15.90336 34914 ft 479 kts 38°
2026-05-05 16:27 57.77462 15.98831 34913 ft 479 kts 38°
2026-05-05 16:27 57.82350 16.07373 34838 ft 480 kts 38°
2026-05-05 16:28 57.84784 16.11649 34602 ft 479 kts 38°
2026-05-05 16:28 57.87210 16.15948 34364 ft 479 kts 39°
2026-05-05 16:28 57.89635 16.20249 34134 ft 479 kts 38°
2026-05-05 16:28 57.92066 16.24542 33902 ft 479 kts 38°
2026-05-05 16:29 57.94502 16.28833 33632 ft 479 kts 38°
2026-05-05 16:29 57.96924 16.33101 33360 ft 477 kts 38°
2026-05-05 16:29 57.99345 16.37381 33100 ft 475 kts 38°
2026-05-05 16:29 58.01745 16.41649 32822 ft 473 kts 38°
2026-05-05 16:30 58.04134 16.45907 32559 ft 472 kts 38°
2026-05-05 16:30 58.06511 16.50154 32287 ft 470 kts 38°
2026-05-05 16:30 58.08877 16.54388 32037 ft 468 kts 38°
2026-05-05 16:30 58.11235 16.58611 31786 ft 466 kts 38°
2026-05-05 16:31 58.13578 16.62812 31330 ft 462 kts 38°
2026-05-05 16:31 58.15907 16.66999 30771 ft 461 kts 38°
2026-05-05 16:31 58.18228 16.71178 30223 ft 459 kts 38°
2026-05-05 16:31 58.20544 16.75352 29628 ft 458 kts 38°
2026-05-05 16:32 58.22844 16.79509 29103 ft 454 kts 38°
2026-05-05 16:32 58.25117 16.83636 28556 ft 451 kts 38°
2026-05-05 16:32 58.27376 16.87741 28045 ft 448 kts 38°
2026-05-05 16:32 58.29618 16.91821 27538 ft 445 kts 38°
2026-05-05 16:33 58.31819 16.95832 27054 ft 442 kts 38°
2026-05-05 16:33 58.34034 16.99872 26563 ft 440 kts 38°
2026-05-05 16:33 58.36243 17.03905 26092 ft 438 kts 38°
2026-05-05 16:33 58.38441 17.07923 25615 ft 437 kts 38°
2026-05-05 16:34 58.40632 17.11937 25139 ft 436 kts 38°
2026-05-05 16:34 58.42811 17.15948 24660 ft 435 kts 38°
2026-05-05 16:34 58.44992 17.19966 24169 ft 436 kts 38°
2026-05-05 16:34 58.47176 17.23991 23670 ft 436 kts 38°
2026-05-05 16:35 58.49360 17.28025 23112 ft 437 kts 39°
2026-05-05 16:35 58.51540 17.32065 22598 ft 435 kts 39°
2026-05-05 16:35 58.53714 17.36096 22063 ft 434 kts 39°
2026-05-05 16:35 58.55878 17.40115 21530 ft 433 kts 39°
2026-05-05 16:36 58.58026 17.44114 21047 ft 430 kts 39°
2026-05-05 16:36 58.60169 17.48112 20629 ft 426 kts 39°
2026-05-05 16:36 58.62296 17.52086 19994 ft 427 kts 39°
2026-05-05 16:36 58.64402 17.56029 19662 ft 420 kts 39°
2026-05-05 16:37 58.66472 17.59917 18893 ft 413 kts 39°
2026-05-05 16:37 58.68504 17.63742 18292 ft 402 kts 39°
2026-05-05 16:37 58.70504 17.67321 17928 ft 382 kts 30°
2026-05-05 16:37 58.72716 17.69799 17845 ft 356 kts 13°
2026-05-05 16:38 58.74998 17.71298 17761 ft 339 kts
2026-05-05 16:38 58.77219 17.72681 17677 ft 336 kts
2026-05-05 16:38 58.79426 17.74031 17601 ft 337 kts
2026-05-05 16:38 58.81665 17.75395 17517 ft 337 kts
2026-05-05 16:39 58.83906 17.76762 17438 ft 337 kts
2026-05-05 16:39 58.86140 17.78131 17356 ft 337 kts
2026-05-05 16:39 58.88371 17.79509 17280 ft 336 kts
2026-05-05 16:39 58.90598 17.80889 17202 ft 336 kts
2026-05-05 16:40 58.92823 17.82268 17127 ft 336 kts
2026-05-05 16:40 58.95051 17.83649 17049 ft 335 kts
2026-05-05 16:40 58.97270 17.85031 16969 ft 335 kts
2026-05-05 16:40 58.99488 17.86413 16894 ft 334 kts
2026-05-05 16:41 59.01701 17.87793 16820 ft 334 kts
2026-05-05 16:41 59.03914 17.89175 16738 ft 334 kts
2026-05-05 16:41 59.06126 17.90552 16661 ft 333 kts
2026-05-05 16:41 59.08331 17.91924 16593 ft 333 kts
2026-05-05 16:42 59.10540 17.93303 16389 ft 333 kts
2026-05-05 16:42 59.12762 17.94688 15628 ft 339 kts
2026-05-05 16:42 59.15021 17.96067 14754 ft 339 kts
2026-05-05 16:42 59.17289 17.96577 14054 ft 319 kts 348°
2026-05-05 16:43 59.19450 17.95999 13291 ft 310 kts 342°
2026-05-05 16:43 59.21567 17.95308 12525 ft 307 kts 342°
2026-05-05 16:43 59.23662 17.94607 11795 ft 303 kts 343°
2026-05-05 16:43 59.25702 17.93917 11091 ft 300 kts 343°
2026-05-05 16:44 59.27747 17.93221 10389 ft 297 kts 344°
2026-05-05 16:44 59.29750 17.92543 9958 ft 285 kts 344°
2026-05-05 16:44 59.31678 17.91898 9418 ft 278 kts 344°
2026-05-05 16:44 59.33487 17.91291 8813 ft 275 kts 345°
2026-05-05 16:45 59.35366 17.90657 8195 ft 272 kts 345°
2026-05-05 16:45 59.37220 17.90032 7581 ft 269 kts 345°
2026-05-05 16:45 59.39053 17.89410 6976 ft 266 kts 345°
2026-05-05 16:45 59.40868 17.88790 6384 ft 263 kts 345°
2026-05-05 16:46 59.42666 17.88176 5775 ft 261 kts 345°
2026-05-05 16:46 59.44480 17.88133 5166 ft 266 kts
2026-05-05 16:46 59.46264 17.89090 4711 ft 259 kts
2026-05-05 16:46 59.47949 17.89802 4576 ft 238 kts
2026-05-05 16:47 59.49521 17.90371 4279 ft 225 kts
2026-05-05 16:47 59.51055 17.90925 3738 ft 219 kts
2026-05-05 16:47 59.52513 17.91407 3487 ft 209 kts
2026-05-05 16:47 59.53890 17.92384 3442 ft 220 kts 33°
2026-05-05 16:48 59.54829 17.94886 3673 ft 247 kts 68°
2026-05-05 16:48 59.55045 17.98326 3910 ft 258 kts 93°
2026-05-05 16:48 59.54864 18.02044 3992 ft 281 kts 97°
2026-05-05 16:48 59.54618 18.05787 4003 ft 269 kts 101°
2026-05-05 16:49 59.53919 18.09108 4011 ft 265 kts 131°
2026-05-05 16:49 59.52471 18.11409 4017 ft 270 kts 161°
2026-05-05 16:49 59.50675 18.12089 4025 ft 261 kts 187°
2026-05-05 16:49 59.48867 18.11781 4029 ft 261 kts 192°
2026-05-05 16:50 59.47072 18.11336 4026 ft 260 kts 193°
2026-05-05 16:50 59.45268 18.10862 4028 ft 261 kts 193°
2026-05-05 16:50 59.43467 18.10390 4026 ft 261 kts 193°
2026-05-05 16:50 59.41664 18.09930 4032 ft 261 kts 193°
2026-05-05 16:51 59.39902 18.09251 4027 ft 254 kts 208°
2026-05-05 16:51 59.38548 18.07285 4030 ft 243 kts 236°
2026-05-05 16:51 59.37917 18.04253 4036 ft 238 kts 266°
2026-05-05 16:51 59.38003 18.01014 4034 ft 239 kts 277°
2026-05-05 16:52 59.38226 17.97849 4034 ft 228 kts 278°
2026-05-05 16:52 59.38448 17.94880 4032 ft 213 kts 278°
2026-05-05 16:52 59.38682 17.92119 4035 ft 198 kts 285°
2026-05-05 16:52 59.39345 17.89891 4038 ft 191 kts 305°
2026-05-05 16:53 59.40230 17.87890 4041 ft 192 kts 310°
2026-05-05 16:53 59.41373 17.86762 4050 ft 192 kts 351°
2026-05-05 16:53 59.42675 17.87544 4056 ft 201 kts 21°
2026-05-05 16:53 59.43964 17.88421 4035 ft 192 kts
2026-05-05 16:54 59.45289 17.88853 3823 ft 194 kts
2026-05-05 16:54 59.46615 17.89308 3550 ft 192 kts
2026-05-05 16:54 59.47927 17.89773 3291 ft 191 kts
2026-05-05 16:54 59.49231 17.90240 3026 ft 190 kts
2026-05-05 16:55 59.50531 17.90706 2768 ft 190 kts
2026-05-05 16:55 59.51827 17.91173 2497 ft 189 kts
2026-05-05 16:55 59.53079 17.91628 2259 ft 172 kts
2026-05-05 16:55 59.54187 17.92033 2020 ft 154 kts
2026-05-05 16:56 59.55208 17.92398 1815 ft 146 kts
2026-05-05 16:56 59.56195 17.92750 1628 ft 143 kts
2026-05-05 16:56 59.57167 17.93099 1432 ft 141 kts
2026-05-05 16:56 59.58123 17.93443 1238 ft 139 kts
2026-05-05 16:57 59.59078 17.93786 997 ft 139 kts
2026-05-05 16:57 59.60023 17.94128 759 ft 137 kts
2026-05-05 16:57 59.60952 17.94464 545 ft 135 kts
2026-05-05 16:57 59.61870 17.94796 364 ft 133 kts
2026-05-05 16:58 59.62773 17.95123 177 ft 132 kts
2026-05-05 16:58 59.63604 17.95427 120 ft 105 kts
2026-05-05 16:58 59.64233 17.95671 111 ft 82 kts 12°
2026-05-05 16:58 59.64716 17.95832 108 ft 44 kts
2026-05-05 16:59 59.64913 17.95828 107 ft 23 kts 317°
2026-05-05 16:59 59.64969 17.95560 111 ft 12 kts 307°
2026-05-05 16:59 59.65029 17.95512 114 ft 9 kts 350°
2026-05-05 16:59 59.65131 17.95468 117 ft 18 kts 346°
2026-05-05 17:00 59.65253 17.95404 122 ft 18 kts 345°
2026-05-05 17:00 59.65374 17.95341 127 ft 19 kts 345°
2026-05-05 17:00 59.65509 17.95271 126 ft 21 kts 345°
2026-05-05 17:00 59.65660 17.95191 128 ft 24 kts 345°
2026-05-05 17:01 59.65751 17.95035 124 ft 17 kts 274°
2026-05-05 17:01 59.65721 17.94790 122 ft 20 kts 259°
2026-05-05 17:01 59.65686 17.94503 122 ft 23 kts 257°
2026-05-05 17:01 59.65643 17.94176 120 ft 26 kts 254°
2026-05-05 17:02 59.65600 17.93826 112 ft 20 kts 256°
2026-05-05 17:02 59.65564 17.93535 112 ft 24 kts 259°
2026-05-05 17:02 59.65499 17.93338 112 ft 15 kts 192°
2026-05-05 17:02 59.65422 17.93384 112 ft 9 kts 108°
2026-05-05 17:03 59.65433 17.93497 110 ft 4 kts 75°
2026-05-05 17:03 59.65434 17.93504 110 ft 0 kts 75°
2026-05-05 17:04 59.65434 17.93510 111 ft 0 kts 76°